Location: Colonia Mina de C?rbuni
(46.1667°N, 22.7167°E)
Time: 07:02:20
(UTC+00:00)

Cosmos 676 Rocket - Pass Details

Date: 04 February 2023
Orbit: 754 x 782 km, 74.0° (Epoch: 21 March)

Event Time Altitude Azimuth Distance (km) Brightness Sun altitude
Rises 16:36:43 0° 196° (SSW) 3,246 7.7 -10.5°
Reaches altitude 10° 16:39:06 10° 195° (SSW) 2,319 6.9 -10.9°
Maximum altitude 16:44:22 80° 109° (ESE) 790 4.0 -11.8°
Drops below altitude 10° 16:49:38 10° 24° (NNE) 2,317 6.2 -12.7°
Sets 16:52:01 0° 23° (NNE) 3,244 6.9 -13.1°
